Wind_Speed
6 7 7 7 6 6 6 6 5 5 5 5 5 5 5 5 6 6 7 8 8 8 8 8 9 10 10 10 10 11 11 12 12 13 13 13 12 12 11 10 9 10 10 10 7 3 1 1 6 8 11 16 11 6 8 9 9 9 8 7 7 8 7
5 6 7 7 7 7 7 7 6 5 5 5 5 6 5 5 5 5 6 7 7 8 7 7 8 8 8 9 9 10 11 11 11 11 11 11 11 11 11 10 8 7 8 10 9 7 3 1 2 3 8 14 12 11 11 10 10 10 8 6 5 6 6
6 7 7 7 7 7 8 7 6 5 5 5 5 6 6 5 5 6 6 7 7 7 7 7 7 7 7 7 8 8 9 10 9 9 9 9 9 9 9 9 8 8 6 6 8 7 4 2 1 2 5 7 7 12 15 14 12 11 9 7 6 6 4
7 7 7 7 7 7 7 7 6 6 5 5 6 6 6 6 6 6 7 7 7 7 7 7 7 7 6 6 6 6 7 7 7 7 7 7 7 7 7 7 7 6 5 4 6 6 4 2 1 2 5 8 7 10 15 16 12 9 9 9 8 7 5
7 6 6 6 6 6 7 7 7 6 6 6 6 6 6 7 7 7 7 8 8 8 8 8 7 7 7 6 6 5 5 5 5 5 5 5 6 6 6 6 5 4 4 5 6 6 5 4 3 2 5 8 7 9 17 16 10 8 8 8 8 7 7
5 5 5 5 5 6 7 7 7 7 6 7 6 6 5 6 7 7 8 8 8 9 8 9 9 9 9 9 8 7 7 6 5 6 6 5 5 5 5 5 5 5 5 6 7 8 8 7 5 3 5 7 4 8 15 14 10 9 8 8 6 7 7
4 4 4 4 4 5 5 5 5 6 6 6 6 5 4 4 5 6 7 7 7 8 9 9 9 10 10 11 11 11 10 9 8 8 8 7 7 7 6 6 5 6 6 6 8 9 9 9 8 5 4 6 5 6 9 10 9 8 7 9 6 5 6
3 3 4 4 4 4 5 5 5 5 6 6 5 4 4 4 5 5 6 7 7 8 9 10 10 10 11 12 13 14 14 13 12 12 11 10 10 9 9 9 9 8 8 8 8 9 10 10 11 9 5 3 4 4 4 6 8 7 7 9 7 1 3
5 5 5 5 5 5 6 7 6 6 7 6 6 5 6 6 7 7 8 9 9 10 10 11 12 12 12 14 15 15 16 15 15 16 15 14 14 13 12 12 12 12 11 10 11 11 12 11 11 12 9 5 2 2 2 3 4 5 7 8 5 3 3
6 6 5 5 5 6 7 7 7 7 7 7 7 7 7 8 8 9 10 11 11 12 12 13 14 14 15 16 16 17 18 17 17 18 18 18 18 17 16 15 15 16 14 13 14 13 13 14 13 13 13 10 6 2 1 2 2 2 7 9 6 4 5
6 6 6 6 6 7 7 7 7 8 8 8 8 9 9 10 10 11 12 13 13 14 15 15 16 16 17 18 19 19 20 19 20 21 21 21 21 20 20 19 18 19 18 17 17 16 16 16 16 15 15 14 12 8 5 2 3 5 9 11 9 7 10
7 7 6 6 7 7 7 7 8 9 9 10 11 11 12 12 13 14 15 16 17 17 17 17 18 18 19 20 21 22 22 22 22 23 23 23 23 23 23 23 22 22 21 20 20 19 19 19 19 19 18 17 16 15 13 7 2 7 12 13 14 15 16
8 7 7 7 7 8 8 9 10 11 11 12 13 13 14 14 14 15 16 17 18 18 19 19 18 18 19 20 21 22 23 23 24 25 25 25 25 25 25 25 26 26 24 23 23 22 22 21 21 21 21 20 19 18 17 12 5 9 19 21 20 21 19
7 7 7 8 9 9 10 11 12 13 13 13 13 14 14 14 14 14 15 15 16 16 17 17 16 16 17 18 18 19 20 21 22 23 24 24 24 25 25 25 27 28 26 24 24 24 24 23 22 22 22 21 21 21 19 17 10 9 19 24 23 22 21
8 9 9 10 11 11 12 13 13 13 13 13 13 12 12 11 11 11 11 12 12 13 13 13 13 12 13 13 14 15 16 17 19 20 21 22 23 23 23 23 25 26 24 24 24 24 24 24 22 21 21 20 21 22 20 19 16 11 15 23 25 24 24
10 11 12 12 12 12 13 13 12 11 10 10 9 8 7 7 7 8 9 10 11 12 13 13 13 12 12 12 12 13 13 14 15 17 18 19 20 20 19 20 21 22 20 21 22 22 22 22 20 20 20 18 18 20 21 20 19 16 16 22 24 24 24
12 13 13 13 12 12 11 10 8 6 5 4 4 5 5 6 7 8 10 11 12 13 14 14 14 14 13 13 13 13 13 12 12 13 14 15 15 16 16 16 17 18 18 18 19 20 19 19 19 20 20 19 17 19 20 19 20 20 18 20 24 25 25
14 14 13 12 11 8 6 3 1 2 3 4 5 6 7 8 9 10 11 12 13 13 14 15 15 15 15 15 14 14 14 13 13 13 12 13 13 13 13 13 13 14 14 15 16 17 18 18 17 17 18 19 18 18 19 18 19 20 20 21 25 27 25
14 13 11 8 5 2 2 4 6 7 7 7 8 8 9 10 11 12 13 13 14 14 15 16 17 17 18 17 17 17 17 16 16 15 15 14 14 13 13 12 12 12 12 13 14 15 16 17 16 16 16 18 18 17 18 18 18 18 19 21 24 26 26
10 8 5 4 6 7 8 9 10 10 9 9 10 10 11 12 12 13 14 14 15 16 17 18 19 18 18 18 18 17 18 18 17 17 17 16 16 15 14 13 13 13 13 14 14 13 14 15 14 14 15 16 17 16 16 17 17 16 17 19 20 22 24
5 7 9 11 11 12 12 12 12 11 10 10 11 12 12 13 14 15 16 17 18 18 19 20 20 19 18 18 17 17 18 18 18 18 18 18 17 17 16 15 15 15 15 15 15 14 15 15 15 14 15 15 15 14 14 15 16 16 15 15 17 19 21
11 14 15 15 14 14 14 13 12 11 11 12 13 13 14 14 15 17 18 19 19 20 21 21 20 19 18 18 17 17 17 18 18 19 19 19 18 18 17 16 16 15 14 15 15 15 15 15 15 16 16 15 14 13 13 14 14 15 15 13 15 17 17
18 18 17 16 15 15 14 13 12 12 12 13 13 14 14 15 17 18 19 20 21 22 22 20 18 17 17 17 16 17 17 17 18 19 20 20 20 19 18 17 16 15 14 15 15 15 14 14 14 15 15 15 15 13 12 13 13 13 14 12 13 14 14
20 19 18 17 16 15 14 14 13 13 14 14 14 14 15 17 18 19 20 21 22 22 21 19 18 17 17 16 16 16 17 18 18 19 20 21 21 19 18 17 17 16 16 16 16 16 15 15 15 15 15 14 14 13 12 12 13 13 14 14 15 15 13
21 19 18 17 17 16 15 15 14 14 14 14 14 15 17 19 20 20 20 21 22 21 21 19 19 18 18 18 17 17 18 18 19 19 20 19 19 18 17 17 17 17 16 16 16 17 17 17 17 17 17 16 15 14 13 12 12 13 14 14 15 16 16
21 20 19 18 18 17 16 15 15 15 15 15 16 18 19 20 20 20 20 21 21 21 20 20 19 20 20 20 19 19 20 20 19 19 19 18 18 18 18 18 19 19 18 17 17 18 18 18 19 18 18 18 17 16 15 12 11 11 11 12 13 15 16
22 21 20 19 18 17 17 17 16 16 16 17 18 20 20 20 20 20 20 21 20 20 20 20 20 20 20 20 20 20 20 20 19 18 18 18 17 17 18 20 21 20 20 20 20 20 19 18 18 18 18 17 17 17 15 14 14 13 11 10 11 14 16
24 23 21 20 19 19 18 18 17 17 17 18 19 20 20 20 20 20 20 20 20 19 18 18 18 19 20 20 21 21 21 20 20 19 19 18 17 16 18 20 21 21 21 21 21 21 21 21 20 19 18 17 17 16 16 16 16 15 14 12 10 12 14
25 24 23 22 21 20 19 18 18 18 18 18 18 19 19 19 19 19 18 18 18 18 17 16 16 17 18 19 20 22 23 22 21 20 19 18 17 17 18 20 21 21 21 21 21 22 23 24 24 23 22 21 20 18 17 16 15 15 14 13 13 12 13
25 25 24 23 22 21 20 20 19 18 18 18 17 17 18 17 17 17 16 15 15 15 15 15 15 16 17 18 19 21 22 23 22 21 19 18 17 17 19 19 20 20 21 22 22 23 23 24 25 25 25 24 24 23 21 18 16 16 15 15 14 14 14
26 26 24 22 22 21 21 20 19 17 17 16 16 16 15 15 14 13 13 12 12 13 14 14 14 15 16 16 17 19 20 21 21 20 18 17 16 16 17 18 18 19 20 21 22 22 23 24 25 25 25 25 25 25 24 22 20 19 18 16 15 14 14
26 26 23 22 23 21 20 19 18 17 17 16 15 14 13 12 11 10 9 10 10 11 12 13 13 14 14 14 16 17 18 19 19 18 16 15 14 14 15 16 18 19 19 20 21 22 22 22 22 23 23 24 24 24 23 22 21 21 21 19 18 16 16
26 24 22 23 22 21 20 19 19 18 17 16 16 14 12 12 10 8 8 8 8 8 9 10 11 12 13 14 15 16 17 17 17 16 15 13 12 13 14 16 18 19 19 20 20 20 20 20 20 20 21 22 21 20 21 21 21 21 22 22 21 19 19
24 21 21 22 21 20 20 19 18 18 17 17 16 15 13 11 9 7 5 4 3 3 5 7 9 11 13 15 15 15 16 15 14 13 13 11 10 12 14 16 18 19 20 20 19 19 19 18 18 20 21 21 19 18 20 21 21 21 22 22 22 22 22
22 20 21 21 21 20 19 18 17 17 17 16 16 14 12 9 7 5 3 2 1 0 1 3 6 9 13 14 14 14 14 13 12 11 10 8 9 12 15 16 18 19 19 19 19 19 19 19 19 20 19 19 18 18 19 20 21 21 21 21 21 23 24
20 19 21 22 21 20 19 18 16 15 15 15 14 12 10 7 5 4 4 4 3 2 3 5 5 8 11 12 12 12 12 12 12 11 8 8 10 13 15 16 17 17 17 18 19 19 20 20 21 20 20 20 20 20 21 22 22 21 20 21 22 23 23
21 22 23 21 19 19 19 18 16 15 13 12 12 11 9 7 7 9 10 9 9 9 9 9 8 8 9 10 11 11 12 13 12 10 8 10 11 13 14 15 16 16 16 17 18 19 20 21 21 20 20 20 20 21 22 22 22 21 20 21 22 21 20
Wind_Direction
328 338 346 344 346 351 355 360 358 354 350 350 356 356 347 340 346 356 2 5 9 15 22 26 27 29 32 35 35 34 37 39 43 45 43 41 44 42 41 47 54 57 57 56 58 55 88 286 341 360 357 355 358 5 8 6 360 351 336 326 327 336 350
328 335 339 337 340 344 346 350 351 353 352 346 348 352 346 335 331 338 346 350 352 359 6 8 11 17 23 28 30 31 31 31 33 34 38 40 40 38 33 33 40 45 47 47 43 45 65 18 336 336 340 348 345 331 334 341 343 343 333 313 298 312 332
327 329 331 335 340 344 349 351 347 349 354 346 341 344 345 340 330 325 331 334 332 338 349 353 356 1 9 17 20 24 28 29 29 29 33 35 36 38 32 27 30 32 34 30 23 23 35 40 1 304 319 341 334 323 328 331 329 330 325 305 277 279 301
320 323 325 333 341 344 353 0 359 357 357 351 342 339 339 337 333 325 324 323 319 321 329 336 338 340 347 358 4 10 17 23 26 26 28 29 30 31 28 26 26 27 29 15 3 2 2 3 343 315 319 328 316 310 326 333 329 324 316 299 275 259 259
314 318 324 336 346 352 357 2 4 4 359 353 348 344 341 335 330 326 322 320 318 317 317 320 321 321 324 328 336 342 347 359 8 9 10 12 14 15 13 15 9 359 355 347 344 341 333 325 323 305 314 330 324 312 328 338 339 334 322 302 279 245 236
305 313 324 337 349 353 355 360 3 5 3 1 357 353 348 336 329 327 324 321 317 315 312 310 310 311 312 313 315 315 317 325 329 332 338 337 337 344 348 350 346 332 322 323 322 319 318 312 311 309 316 328 321 313 330 341 343 344 341 323 292 231 224
291 304 315 326 339 341 341 346 349 353 358 3 4 2 355 334 324 322 319 317 314 310 307 306 306 304 304 305 304 303 304 304 302 304 309 313 312 311 311 313 314 309 305 307 304 303 305 302 299 296 308 324 313 307 326 336 339 344 353 350 332 226 221
266 277 287 299 309 315 319 322 326 331 333 339 344 346 342 328 319 313 307 307 307 303 300 299 300 300 298 297 298 298 298 298 293 291 293 296 298 299 298 296 293 291 291 292 290 290 293 294 296 293 288 311 319 311 321 331 336 335 340 356 0 284 231
257 265 274 286 296 303 307 308 313 318 317 320 323 320 321 319 317 316 311 309 307 303 300 297 295 295 293 292 292 292 294 295 292 290 291 289 289 291 291 289 288 288 290 287 283 284 287 287 290 292 284 261 261 314 317 315 335 332 326 340 349 322 292
249 259 272 285 297 299 298 300 306 312 313 315 315 312 311 311 311 312 312 313 312 308 305 302 298 296 293 290 289 289 290 292 289 287 288 286 286 287 286 285 284 285 287 286 284 284 285 286 285 285 283 270 252 242 303 304 291 286 305 312 310 294 295
243 257 271 285 296 297 298 304 308 312 319 319 317 316 314 312 313 311 311 312 312 309 307 305 301 298 294 291 290 290 291 291 288 286 286 284 284 284 282 283 282 283 285 283 283 285 284 286 285 283 283 277 261 241 228 258 282 267 281 294 293 289 298
246 258 270 283 291 295 303 312 313 314 319 320 319 320 318 317 317 315 313 313 312 311 309 307 303 299 295 292 291 291 292 291 288 288 289 287 286 285 282 282 281 281 284 283 283 285 284 284 285 284 282 278 269 257 243 230 254 270 268 278 289 292 296
248 258 270 280 286 294 305 311 313 314 317 318 318 318 317 317 317 317 317 316 315 315 313 311 310 305 299 296 294 294 294 292 288 289 291 290 289 287 284 284 284 283 283 283 283 285 285 285 285 284 283 278 273 266 251 233 220 267 269 274 284 290 295
249 261 270 278 285 294 302 306 310 313 317 320 319 319 320 321 322 322 322 321 319 319 317 317 316 312 308 305 302 300 299 296 293 293 293 293 292 290 286 286 288 288 286 284 284 285 287 288 288 286 285 280 275 271 258 240 228 257 272 276 280 286 291
255 264 270 277 285 292 299 305 311 316 320 323 322 324 327 329 332 333 335 337 338 338 339 339 339 336 331 327 322 318 314 308 304 303 301 301 302 300 295 293 294 296 295 292 290 289 289 292 296 294 292 288 282 278 269 254 245 252 271 276 278 283 287
261 268 274 280 287 294 302 309 314 319 324 329 334 343 349 353 0 4 8 11 11 11 11 12 12 11 8 1 354 349 342 333 325 320 316 315 316 314 308 304 306 308 307 302 300 298 297 299 304 302 298 298 292 286 281 268 257 254 265 277 280 282 285
265 271 277 284 291 300 308 313 318 328 340 357 18 35 36 33 32 31 31 29 26 25 24 25 25 24 22 17 12 10 6 3 360 353 345 340 338 334 328 322 322 323 319 314 312 313 312 311 311 307 303 303 300 296 291 280 268 261 261 273 281 282 283
268 274 279 287 294 299 308 315 11 76 89 88 79 70 59 51 45 43 43 40 36 34 32 31 30 29 27 25 23 23 22 21 21 19 14 8 4 359 355 350 346 344 338 331 328 328 326 323 320 316 313 312 310 305 300 291 280 270 262 265 275 282 285
272 277 280 280 273 247 145 127 119 113 109 101 89 77 67 63 58 56 56 52 49 47 44 41 37 34 31 29 29 30 31 33 33 32 31 28 24 20 16 13 9 7 3 352 343 338 334 329 327 325 323 320 317 312 306 301 293 281 270 267 273 280 284
272 266 243 196 164 145 134 127 121 116 109 98 87 79 73 72 69 68 67 66 63 60 56 51 46 41 36 33 32 32 33 36 38 38 39 37 37 35 30 28 26 22 18 12 4 359 353 346 341 338 334 329 324 319 313 309 302 289 278 274 276 278 282
217 177 160 151 143 136 130 125 120 115 106 93 87 84 83 82 81 81 79 76 71 66 60 55 50 45 42 39 37 36 35 35 36 38 40 39 39 40 38 38 37 30 26 28 28 26 20 13 6 359 355 350 341 332 323 316 309 298 287 281 282 283 284
157 152 148 143 138 133 128 125 120 113 102 95 94 92 90 91 91 89 86 79 73 67 62 57 51 46 44 42 41 40 38 37 36 36 39 40 39 39 37 37 36 33 32 33 30 25 21 18 13 6 2 358 353 344 333 324 316 308 299 287 282 284 285
150 148 145 140 135 131 129 126 120 112 104 100 100 98 96 97 96 92 87 81 75 70 65 60 55 50 47 45 44 43 42 40 39 37 36 37 38 38 38 36 32 29 27 21 14 8 4 2 0 357 353 350 348 343 336 328 324 321 314 303 292 288 283
150 147 143 137 133 131 130 127 120 112 107 105 105 104 103 102 98 93 88 82 76 72 69 65 60 55 52 50 47 47 47 45 43 41 39 38 37 36 37 36 31 25 19 11 1 357 355 351 349 346 341 339 338 336 333 327 322 322 321 317 313 308 300
149 144 139 134 132 131 128 124 119 112 109 111 113 113 110 106 100 94 88 83 79 76 73 68 63 58 56 54 52 51 51 49 46 43 41 37 33 29 28 29 28 24 18 11 2 358 356 353 351 348 343 342 341 340 343 339 326 319 317 316 314 312 309
146 141 137 134 133 131 126 122 118 114 115 120 121 118 113 108 101 94 88 85 83 80 74 68 63 59 56 54 54 54 53 50 47 44 39 34 29 25 24 25 26 25 22 17 11 6 2 357 353 351 350 351 351 353 358 1 355 342 326 316 308 303 304
144 139 138 136 133 129 124 122 119 118 122 127 126 121 116 109 100 94 90 87 86 82 76 69 63 59 57 54 53 53 52 49 47 42 37 34 31 29 31 31 29 30 29 26 20 14 9 4 360 357 356 356 356 1 6 8 8 4 353 337 315 303 304
141 140 139 136 132 127 124 122 122 124 127 129 128 124 118 109 101 96 92 90 89 84 78 70 63 59 56 54 50 49 47 46 45 41 36 37 39 39 41 40 37 38 37 34 28 23 20 18 14 9 5 3 2 8 15 14 13 13 9 2 346 328 324
142 141 140 136 131 129 128 126 126 127 128 129 129 126 120 111 103 99 96 92 89 86 80 71 64 58 53 49 46 44 41 40 40 39 37 41 47 48 47 45 43 44 43 40 35 31 29 27 24 20 16 13 13 15 17 17 18 20 19 17 15 7 1
144 143 141 138 135 134 132 127 124 124 126 131 135 132 124 114 105 101 99 94 89 88 84 74 65 59 52 45 41 39 37 35 34 35 38 45 51 54 53 49 47 46 46 43 38 33 30 28 27 25 21 19 20 19 17 15 15 19 23 25 26 24 20
148 146 144 141 138 134 129 125 123 121 122 130 137 137 131 121 110 104 101 96 91 90 88 79 68 60 52 45 38 35 33 32 31 30 34 42 51 55 56 53 51 49 47 43 37 31 27 24 23 23 21 20 20 19 17 15 12 12 15 19 22 24 22
151 148 146 143 139 135 131 129 126 123 120 125 132 138 138 130 119 111 107 104 98 93 88 79 68 60 52 44 38 33 28 27 29 28 28 36 45 50 54 55 54 50 43 36 30 25 21 20 21 22 21 19 18 14 14 16 14 11 11 13 16 16 17
153 149 147 145 142 140 137 134 131 127 125 126 129 134 135 129 125 123 122 120 110 97 89 79 67 58 50 41 36 31 26 24 25 23 23 29 37 44 51 53 48 42 35 30 26 22 21 22 24 25 25 24 20 12 11 15 16 15 14 14 14 13 12
153 149 147 148 146 144 142 139 135 132 131 132 133 135 136 133 132 134 131 127 117 95 91 87 71 54 43 37 32 28 23 21 21 19 17 21 34 46 51 47 40 33 28 26 25 24 25 26 28 29 29 27 21 14 13 14 12 13 14 11 11 11 9
154 149 150 154 152 149 146 142 138 137 137 139 139 140 143 143 140 135 120 102 95 350 151 121 81 50 38 33 30 26 21 17 17 15 11 18 42 53 50 42 35 29 25 25 26 27 28 27 27 27 26 22 17 13 13 12 9 9 11 10 10 10 8
155 156 161 163 158 152 148 145 143 142 143 144 145 147 151 151 141 126 113 107 97 70 86 110 89 50 37 32 30 28 23 19 16 13 19 45 60 55 44 36 33 30 27 28 29 29 30 28 26 23 20 17 16 14 12 12 11 10 11 11 11 9 6
162 166 168 167 162 157 153 149 145 142 141 144 145 144 145 143 126 110 103 100 95 84 82 88 81 55 41 38 33 27 23 20 17 18 43 65 60 47 38 34 33 31 29 28 28 27 28 27 24 20 15 13 13 14 14 13 12 12 11 11 10 6 3
Height
809 809 809 809 808 808 807 807 807 806 806 806 805 805 805 805 805 805 805 804 804 804 803 803 802 802 802 801 801 800 799 799 798 798 798 797 797 797 796 796 795 795 795 794 794 794 795 793 791 790 789 789 789 789 788 788 787 787 786 786 786 786 786
809 809 809 808 808 808 807 807 807 806 806 806 806 805 805 805 805 805 805 804 804 804 803 803 803 802 802 802 801 801 800 800 799 799 799 798 798 798 797 797 796 796 795 795 795 794 794 794 793 792 791 789 788 788 787 787 787 786 786 786 785 785 785
809 809 809 808 808 807 807 807 806 806 806 806 806 805 805 805 805 805 805 804 804 804 804 803 803 802 802 802 801 801 800 800 800 800 799 799 799 799 798 798 797 797 796 796 795 795 795 795 795 794 792 791 790 788 787 786 786 785 785 785 785 785 785
809 809 808 808 808 807 807 807 806 806 806 806 806 805 805 805 805 804 804 804 804 803 803 803 803 802 802 802 801 801 801 800 800 800 800 799 799 799 799 798 798 798 797 797 796 796 796 795 795 794 793 792 791 788 786 785 785 784 784 784 783 784 784
808 808 808 807 807 807 807 807 806 806 806 806 806 805 805 805 804 804 804 803 803 803 803 802 802 802 801 801 801 801 800 800 800 800 799 799 799 799 799 798 798 798 798 798 797 796 796 796 795 795 793 792 790 788 786 785 784 783 783 782 782 783 783
808 808 807 807 807 807 807 807 806 806 806 806 806 805 805 804 804 804 803 803 803 802 802 802 802 801 801 801 800 800 800 800 800 799 799 799 799 799 798 798 798 797 797 797 797 797 796 796 795 795 793 792 791 789 786 785 784 783 782 782 781 781 782
807 807 807 807 807 807 807 807 807 807 806 806 805 805 805 804 804 804 803 803 803 802 802 802 801 801 801 800 800 800 799 799 799 799 799 798 798 798 798 798 797 797 797 796 796 796 796 795 795 795 794 793 792 790 787 786 785 784 783 782 781 781 782
807 807 807 807 807 807 807 807 807 806 806 806 805 805 805 804 804 803 803 803 802 802 802 801 801 801 800 800 800 799 799 799 799 798 798 798 798 798 797 797 797 796 796 796 795 795 795 795 794 794 794 793 793 791 789 787 785 784 784 782 782 782 782
806 806 806 807 807 807 807 807 806 806 806 806 805 805 805 804 804 803 803 802 802 802 801 801 801 800 800 799 799 799 798 798 798 797 797 797 797 797 796 796 796 795 795 795 794 794 794 793 793 793 793 793 794 793 791 789 786 785 784 783 783 782 782
806 806 806 806 806 806 807 806 806 806 806 806 805 805 805 804 804 803 803 802 801 801 801 800 800 799 799 798 798 797 797 797 797 796 796 796 795 795 795 795 794 794 793 794 793 793 793 792 792 791 791 791 792 793 792 790 788 785 784 783 783 782 782
805 806 806 806 806 806 806 806 806 805 805 805 805 805 804 804 804 803 802 802 801 801 800 800 799 799 798 797 796 796 795 795 795 794 794 794 793 794 793 793 793 792 792 792 791 791 791 791 790 790 790 790 790 790 790 790 788 785 783 783 782 782 781
804 805 805 805 806 805 805 805 805 805 805 805 804 804 804 803 803 803 802 801 801 800 800 799 798 798 797 796 795 794 794 794 793 792 792 792 791 791 791 791 791 790 790 790 790 790 789 789 789 789 788 788 788 787 788 788 788 784 781 781 780 780 780
804 804 805 805 805 805 805 805 804 804 804 804 804 803 803 802 801 801 800 800 799 798 797 797 796 796 795 794 793 793 792 792 791 790 790 790 790 789 789 788 788 787 788 788 788 788 787 787 787 787 786 786 786 785 785 786 786 782 779 779 778 778 778
803 804 804 804 804 804 804 804 804 804 803 803 803 802 801 801 800 800 799 798 797 796 795 795 794 793 793 792 791 791 790 790 789 788 788 787 787 787 787 786 785 785 786 786 786 785 785 785 785 785 784 784 783 783 783 783 783 779 777 777 776 776 776
803 803 803 803 804 803 803 804 803 803 802 801 801 801 800 800 799 798 798 797 796 795 794 793 793 792 791 790 790 789 789 788 787 787 786 785 785 785 785 785 784 784 784 784 784 783 783 783 783 783 783 782 782 781 782 781 781 779 776 774 774 774 773
802 802 803 803 803 803 802 803 802 802 801 800 800 800 799 799 798 798 797 796 796 795 794 793 792 791 790 790 789 788 788 787 786 786 785 784 784 784 784 783 783 783 783 782 782 782 782 782 782 782 781 780 780 779 779 779 779 778 775 773 772 772 771
801 801 802 802 802 802 801 801 801 801 800 800 800 799 799 799 798 797 797 796 796 795 795 794 793 792 791 790 789 788 787 786 786 785 784 784 783 783 783 782 782 782 782 781 781 781 781 781 781 780 779 778 778 777 776 776 776 775 774 772 770 769 769
800 800 801 801 801 801 800 800 800 800 800 799 799 799 799 799 798 798 797 797 797 796 795 795 794 793 792 791 790 789 788 787 786 785 784 783 783 782 782 782 781 781 781 780 780 780 779 779 779 778 777 776 776 775 774 773 773 773 772 771 768 767 767
799 799 799 799 800 800 800 800 800 800 800 799 799 800 799 799 799 798 798 798 797 797 796 795 794 794 793 792 791 790 789 788 787 786 785 784 783 782 782 781 781 781 780 780 779 779 778 778 777 777 776 775 774 773 772 771 771 771 770 769 767 765 765
797 797 798 798 799 799 799 800 800 800 800 800 800 800 800 800 800 799 799 799 798 798 797 796 796 795 794 793 792 790 789 788 788 787 786 785 784 783 782 781 781 781 780 780 779 779 778 777 776 776 775 774 773 772 771 770 770 769 768 767 766 764 763
796 796 797 798 798 799 799 800 800 800 801 801 801 801 801 801 800 800 800 800 799 799 798 797 797 797 796 795 793 792 791 789 788 787 787 786 785 784 783 782 781 781 781 780 780 779 778 777 776 775 774 773 772 771 770 769 768 767 766 765 764 763 762
795 796 796 797 798 799 799 800 800 801 801 801 801 801 801 802 801 801 801 801 800 799 799 799 799 798 797 796 795 794 792 791 790 789 788 787 786 785 784 783 782 782 782 781 780 779 779 778 776 775 774 773 772 770 769 768 767 766 765 764 763 762 761
794 795 796 796 797 798 799 800 801 801 801 802 802 802 802 802 802 802 802 802 801 800 800 800 800 800 799 798 797 795 794 792 791 790 789 788 787 786 785 784 784 783 782 781 780 779 778 778 776 775 774 773 771 770 768 767 766 765 764 763 762 761 759
793 794 795 796 797 798 799 800 800 801 801 802 802 802 803 803 803 803 803 802 802 801 802 802 802 801 800 799 798 796 795 794 792 791 790 789 788 787 786 785 784 783 782 781 780 779 778 777 776 775 773 772 771 770 768 767 766 764 763 762 761 760 758
793 794 795 796 797 798 799 800 800 801 801 802 803 803 804 803 803 804 803 803 803 803 803 803 803 802 801 800 799 798 796 795 794 793 792 790 789 788 786 786 785 784 783 781 780 778 777 776 775 773 772 771 770 769 767 766 765 764 763 762 760 759 757
792 794 795 796 797 798 799 799 800 800 801 802 803 803 804 804 804 804 804 804 804 804 804 804 804 804 803 802 800 799 798 797 795 794 793 791 790 789 787 786 785 784 783 781 780 778 777 775 774 773 771 770 769 767 766 765 764 763 762 761 760 758 757
791 793 795 796 797 798 798 799 799 800 800 802 803 804 804 804 804 805 804 805 805 805 805 805 805 805 804 803 802 800 799 798 797 796 794 792 791 789 788 787 786 784 783 781 780 778 777 775 773 772 770 769 768 767 765 764 763 762 761 760 759 757 755
790 792 794 795 796 797 798 798 798 799 800 801 803 804 804 804 805 805 805 805 805 806 806 806 806 805 805 804 803 801 800 799 798 796 795 793 792 790 789 788 787 785 783 782 781 779 777 775 774 772 770 769 767 766 764 763 762 761 759 758 757 756 754
790 791 793 794 795 796 796 797 797 799 800 801 803 804 804 804 805 805 805 806 806 806 806 807 806 806 805 804 803 802 801 799 798 797 795 794 792 791 790 789 788 786 785 783 782 780 779 777 775 773 771 769 767 765 764 763 762 761 759 758 756 755 753
789 790 792 793 794 795 795 796 797 798 799 801 802 803 804 804 805 805 806 806 806 806 807 807 807 806 805 804 803 802 801 800 798 797 796 794 793 792 791 790 788 787 786 785 784 782 780 778 776 774 772 770 768 766 764 763 762 761 759 758 756 755 753
787 789 791 792 793 795 796 797 798 798 799 800 802 803 803 804 805 805 806 806 806 806 807 807 807 806 805 804 803 802 801 800 798 797 796 795 794 793 791 790 789 788 787 786 785 783 781 779 777 775 774 771 769 767 766 764 762 760 759 757 756 755 753
786 788 790 791 793 794 796 797 798 798 799 800 801 802 803 804 804 805 806 806 806 807 807 807 806 806 805 804 803 802 801 800 798 797 796 795 794 793 792 791 790 789 788 787 786 784 782 780 778 777 775 773 771 769 768 766 763 761 759 757 755 754 752
786 787 789 791 792 793 794 796 797 798 799 800 801 802 803 803 804 805 805 806 806 806 807 806 806 805 804 804 803 802 801 799 798 797 796 795 794 794 793 792 791 790 789 788 786 785 783 781 779 778 776 774 773 771 769 767 765 763 760 758 756 754 752
786 787 789 791 792 793 794 795 797 798 799 800 800 801 802 803 804 804 805 805 805 806 806 806 805 805 804 803 802 801 800 799 798 798 797 795 795 794 793 792 791 790 789 788 787 785 783 782 780 779 777 776 775 773 770 768 765 763 761 759 756 754 751
786 788 791 792 792 793 794 795 796 797 798 799 800 801 802 802 803 804 804 804 804 804 804 804 805 804 804 803 802 801 801 800 799 798 797 795 795 794 793 793 792 791 790 788 787 785 784 782 781 779 778 777 775 773 770 768 766 763 761 759 757 754 752
787 788 790 791 792 793 793 795 796 797 798 799 799 800 801 802 803 803 803 803 803 803 803 803 804 804 803 803 802 801 801 800 799 798 796 796 795 795 794 794 793 792 791 789 787 786 784 783 781 780 779 777 775 772 770 768 765 763 761 759 757 756 755
786 787 789 791 792 793 794 794 795 796 798 798 799 800 801 801 802 802 803 803 803 803 803 803 804 804 803 803 802 802 801 800 798 797 797 796 796 795 795 794 793 792 791 789 788 786 785 783 782 780 779 777 774 772 770 768 766 764 762 761 759 758 757